Location: Bühlingen
(48.9540°N, 10.4717°E)
Time: 18:04:02
(UTC+00:00)

Daily predictions for brighter satellites

Satellite Brightness Start Highest point End
(mag) Time Altitude Azimuth Time Altitude Azimuth Time Altitude Azimuth
USA 234 3.9 19:54:46 10° E 20:01:09 57° NNE 20:07:32 10° WNW
GENESIS II 4.5 20:00:17 10° NW 20:04:20 67° NE 20:08:22 10° SE
Meteor 2-10 Rocket 3.5 20:01:59 10° N 20:07:06 77° ENE 20:12:06 10° SSE
Okean 1 Rocket 3.5 20:03:13 10° NNW 20:07:42 68° W 20:12:07 10° S
Cosmos 407 Rocket 3.6 20:03:48 10° NNW 20:09:01 67° ENE 20:14:08 10° SSE
APEX 4.1 20:04:32 10° SSW 20:10:30 76° ESE 20:15:29 10° NNE
SL-14 R/B 3.5 20:07:15 10° SSW 20:11:06 73° W 20:15:01 10° N
S3M 4.0 20:05:27 10° S 20:11:40 75° E 20:17:49 10° NNE
Cosmos 1455 Rocket 3.4 20:08:37 10° N 20:12:54 51° ENE 20:17:07 10° SSE
USA 245 3.8 20:09:07 10° SSE 20:14:16 75° ENE 20:18:26 10° N
SL-16 R/B 4.3 20:09:26 10° WSW 20:14:34 34° NW 20:19:44 10° NNE
MetOp-B 4.3 20:11:37 10° S 20:16:58 78° WSW 20:22:21 10° NNW
SPOT 5 3.0 20:13:19 10° SSE 20:17:43 53° ENE 20:21:59 10° N
Cosmos 2056 Rocket 4.4 20:13:44 10° SSE 20:18:24 32° E 20:23:10 10° NE
Meteor 2-5 Rocket 4.1 20:13:24 10° SSE 20:18:38 45° E 20:23:54 10° NNE
SPOT 1/Viking Rocket 4.3 20:16:33 10° S 20:21:33 52° W 20:26:35 10° NNW
Cosmos 1271 Rocket 4.0 20:19:14 10° N 20:22:43 28° ENE 20:26:12 10° SE
Cosmos 1300 3.3 20:20:37 10° NNW 20:24:20 57° W 20:28:03 10° S
Cosmos 1025 Rocket 3.4 20:21:15 10° SSE 20:25:18 45° E 20:29:24 10° NNE
USA 32 4.5 20:24:50 10° SSE 20:29:46 45° E 20:34:45 10° NNE
ERS-1 Rocket 3.1 20:24:51 10° SSE 20:29:49 64° ENE 20:34:49 10° N
Cosmos 1140 Rocket 3.6 20:27:24 10° NNW 20:32:38 76° WSW 20:37:47 10° SSE
Cosmos 1953 4.1 20:31:36 10° NNW 20:35:02 29° W 20:38:27 10° SSW
Cosmos 1943 3.7 20:32:17 10° SW 20:37:55 66° WNW 20:43:34 10° NNE
CZ-2C R/B 4.0 20:36:36 10° NNE 20:41:07 48° E 20:45:31 10° S
Cosmos 1603 4.1 20:36:12 10° SW 20:41:53 69° WNW 20:47:38 10° NNE
Lacrosse 5 2.5 20:37:50 10° NW 20:42:52 54° NNE 20:47:52 10° ESE
Cosmos 1975 Rocket 3.1 20:41:30 10° S 20:45:59 88° E 20:50:27 10° N
H-2A R/B 4.2 20:43:02 10° N 20:46:46 28° WNW 20:50:32 10° WSW
Helios 1A Rocket 3.0 20:43:49 11° S 20:47:46 79° WSW 20:51:53 10° NNW
Ariane Rocket 4.4 20:44:36 10° SSW 20:49:14 35° W 20:53:55 10° NNW
Cosmos 1954 Rocket 4.2 20:44:27 10° NNW 20:49:46 67° ENE 20:54:15 14° SE
Resurs 01 Rocket 3.9 20:50:36 10° SW 20:53:54 20° W 20:57:13 10° NW
Lacrosse 4 Rocket 3.3 20:54:21 10° WSW 20:58:06 33° NW 21:01:50 10° NNE
Tiangong 2.5 20:57:07 10° SW 20:59:33 20° S 21:00:12 19° SSE
Cosmos 2228 4.2 20:57:48 10° N 21:01:33 29° ENE 21:04:23 15° SE
Cosmos 1544 Rocket 3.5 20:59:46 10° N 21:04:07 88° E 21:07:38 15° S
Cosmos 1703 4.4 21:03:36 17° SE 21:05:43 28° E 21:09:04 10° NNE
FALCON 9 DEB 2.9 21:03:44 10° WSW 21:07:00 87° SSE 21:10:17 10° ENE
Terra 1.9 21:02:52 13° S 21:07:03 77° WSW 21:11:51 10° NNW
USA 267 3.2 21:02:24 10° ENE 21:08:58 71° SE 21:15:29 10° SW
SL-8 R/B 3.6 21:04:13 10° W 21:09:02 82° S 21:13:53 10° E
Cosmos 1980 Rocket 4.3 21:06:43 10° N 21:10:51 20° NE 21:14:57 10° E
Cosmos 1455 2.2 21:08:05 10° NNW 21:11:54 82° W 21:14:42 17° S
Meteor 1-24 Rocket 3.7 21:07:21 10° SSW 21:12:38 78° WNW 21:18:03 10° N
Cosmos 2315 Rocket 4.4 21:07:30 10° SSW 21:13:49 68° WNW 21:20:09 10° N
Cosmos 1697 Rocket 4.0 21:10:49 10° NNW 21:15:51 32° NE 21:20:50 10° ESE
NOSS 2-1 (C) 4.0 21:13:01 10° NW 21:17:22 78° NE 21:22:11 16° SE
Cosmos 1371 Rocket 4.1 21:13:29 10° SSW 21:18:42 82° WNW 21:24:01 10° NNE
RESURS DK-1 3.9 21:16:18 10° NNW 21:19:54 28° NE 21:23:13 11° ESE
Cosmos 1452 Rocket 4.3 21:17:03 18° SSE 21:20:18 35° ESE 21:25:02 10° NE
Spot 2 Rocket 4.4 21:15:33 10° S 21:20:22 43° W 21:25:14 10° NNW
ARIANE 5 R/B 2.9 21:23:37 17° S 21:27:03 63° WSW 21:31:30 10° NNW
NOSS 2-1 (D) 4.0 21:23:20 10° NW 21:27:45 89° NE 21:32:17 18° SE
ASTEX 1 4.1 21:24:29 10° NNE 21:29:10 39° E 21:32:06 20° SE
Lacrosse 5 rocket 1.3 21:25:32 10° WNW 21:29:23 66° SW 21:31:47 23° SE
Cosmos 2084 3.2 21:26:58 10° SSW 21:30:43 55° SE 21:34:31 10° NE
Cosmos 2074 Rocket 4.0 21:30:57 10° N 21:37:17 86° W 21:42:02 18° S
ATLAS 2AS CENTAUR R/B 2.8 21:32:59 10° NW 21:40:07 71° SW 21:44:51 20° SSE
Cosmos 1656 3.6 21:37:46 10° NNW 21:43:15 84° ENE 21:46:54 22° SSE
GP-B 3.9 21:39:20 10° NNE 21:43:28 37° E 21:45:40 23° SE
USA 234 3.3 21:38:51 17° SE 21:44:04 71° SW 21:50:39 10° WNW
Cosmos 1833 Rocket 3.5 21:44:37 22° SSE 21:47:21 34° ESE 21:52:21 10° NE
Cosmos 2154 Rocket 4.0 21:50:21 10° N 21:56:37 86° W 22:00:52 22° S
Cosmos 1271 Rocket 4.4 21:55:10 10° NNW 21:58:34 27° W 22:01:16 14° SW
Nadezhda 1 Rocket 3.9 21:54:38 20° S 21:59:03 80° E 22:05:09 10° NNE
Cosmos 2082 Rocket 3.7 21:59:42 17° SE 22:01:36 20° E 22:05:35 10° NE
Cosmos 1741 Rocket 4.0 21:58:35 10° NNW 22:03:56 86° WSW 22:07:02 26° SSE
Cosmos 1610 Rocket 4.5 21:58:20 10° N 22:04:33 84° W 22:08:40 23° S
Cosmos 2344 4.3 22:00:19 10° NW 22:09:00 77° NE 22:20:43 11° SE
Cosmos 968 Rocket 4.0 22:20:09 10° NNW 22:25:13 51° ENE 22:28:30 21° SE
Cosmos 1606 Rocket 3.8 22:21:08 10° NNW 22:25:25 61° W 22:27:26 29° SSW
H-2A R/B 3.8 22:21:38 10° NNE 22:25:44 50° E 22:27:16 33° SSE
Lacrosse 5 2.3 22:20:58 10° WNW 22:25:51 46° SW 22:27:56 30° S
COSMOS 2406 3.8 22:25:00 27° SSE 22:27:37 42° ESE 22:33:00 10° NE
Meteor 1-11 4.3 22:30:33 27° S 22:33:35 65° E 22:39:09 10° NNE
SL-8 Rocket 4.0 22:29:33 10° N 22:35:51 77° E 22:39:30 27° SSE
Cosmos 2369 3.9 22:31:46 10° NNW 22:37:30 67° ENE 22:41:14 22° SE
SJ 16-02 4.0 22:36:37 10° NNE 22:38:38 13° NE 22:40:40 10° ENE
Cosmos 2228 4.4 22:35:20 10° NNW 22:39:00 29° W 22:41:10 19° SW
Cosmos 1328 4.2 22:37:11 28° SSW 22:39:10 60° WNW 22:43:10 10° N
Cosmos 2218 Rocket 4.2 22:33:03 10° N 22:39:27 70° ENE 22:43:17 26° SSE
Cosmos 2341 Rocket 4.0 22:34:58 10° N 22:41:23 84° W 22:45:04 27° S
SL-16 R/B 4.1 22:37:56 10° NNW 22:42:35 25° NE 22:47:11 10° E
FALCON 9 DEB 4.4 22:40:23 10° WNW 22:43:30 40° N 22:46:38 10° ENE
Cosmos 1408 2.3 22:43:33 47° S 22:44:26 79° E 22:47:53 10° NNE
Terra 4.4 22:44:58 10° W 22:45:37 10° W 22:46:16 10° WNW
Cosmos 1825 2.9 22:46:54 33° SE 22:47:50 39° E 22:51:21 10° NNE
ALOS 2 2.6 22:46:37 35° S 22:48:28 77° WSW 22:52:52 10° NNW
Cosmos 2366 rocket 4.0 22:42:46 10° N 22:49:06 80° E 22:52:47 27° SSE
Cosmos 1900 4.4 22:45:37 10° NW 22:50:49 87° WSW 22:53:35 28° SSE
Cosmos 1867 4.3 22:45:47 10° NNW 22:51:09 51° NE 22:56:07 12° ESE
SL-8 R/B 3.6 22:46:43 10° W 22:51:33 74° SSW 22:56:22 10° ESE
Cosmos 1726 Rocket 4.3 22:47:42 10° NNW 22:51:47 42° W 22:53:36 27° SW
USA 267 4.0 22:45:32 10° ENE 22:51:54 57° NNW 22:58:16 10° W
Cosmos 1980 Rocket 2.2 22:50:04 10° NNW 22:55:49 79° ENE 22:59:14 25° SE
RESURS DK-1 3.2 22:54:08 10° NW 22:57:58 37° WSW 22:59:03 31° SW
Cosmos 1697 Rocket 3.0 22:54:37 10° NW 23:00:06 53° WSW 23:02:42 29° S
Cosmos 1331 Rocket 4.3 22:57:22 20° SW 23:01:03 64° WNW 23:06:21 10° NNE
Cosmos 1812 Rocket 4.4 22:57:25 10° N 23:01:44 43° ENE 23:03:53 25° SE
Lacrosse 5 rocket 3.6 23:06:19 10° WSW 23:07:17 12° WSW 23:07:17 12° WSW
Cosmos 1892 2.8 23:06:34 38° SSW 23:07:49 65° WNW 23:11:34 10° N
ERS-2 2.0 23:04:55 10° NNE 23:08:32 74° ESE 23:09:26 47° S
ADEOS Rocket 3.5 23:05:35 26° S 23:09:45 69° WSW 23:17:18 10° NNW
USA 276 1.7 23:10:14 77° SW 23:10:24 84° SSE 23:13:20 10° ENE
Cosmos 2084 Rocket 3.4 23:07:10 10° NW 23:11:03 72° NE 23:13:11 26° SE
In-Cosmos 22 Rocket 4.2 23:08:21 29° S 23:11:20 87° E 23:16:54 10° NNE
Cosmos 2058 Rocket 3.8 23:10:52 10° NNW 23:15:01 42° W 23:16:43 29° SW
Cosmos 1602 Rocket 3.9 23:15:24 34° SSE 23:16:57 53° E 23:21:11 10° NNE
Cosmos 2181 Rocket 4.0 23:15:18 26° SSW 23:18:54 74° W 23:25:07 10° N
Cosmos 2278 3.8 23:18:04 10° NNW 23:23:50 79° ENE 23:27:31 23° SE
Cosmos 1302 Rocket 4.0 23:21:10 27° SSW 23:24:02 79° WNW 23:29:16 10° NNE
Cosmos 192 4.5 23:21:56 26° SW 23:24:38 69° WNW 23:29:32 10° NNE
Cosmos 2322 Rocket 3.7 23:19:44 10° NNW 23:24:51 33° NE 23:29:57 10° ESE
Geosat FO 4.4 23:25:31 49° SSE 23:26:19 78° WSW 23:29:53 10° NNW
USA 234 4.4 23:26:11 20° SW 23:27:52 22° SW 23:32:50 10° WNW
ATLAS 2AS CENTAUR R/B 4.4 23:25:55 10° WNW 23:29:41 15° WSW 23:32:16 13° SW
Cosmos 1833 Rocket 3.5 23:26:16 13° SW 23:31:08 46° NW 23:36:34 10° NNE
CZ-2D R/B 4.3 23:32:44 10° NE 23:35:25 14° E 23:38:05 10° ESE
Geosat 4.0 23:35:56 23° SE 23:39:10 81° ENE 23:44:14 10° NNW
BREEZE-M DEB (TANK) 4.2 23:37:09 10° W 23:40:59 82° SSW 23:58:19 10° ESE
Okean 1-7 Rocket 4.1 23:39:49 28° SW 23:41:49 51° WNW 23:46:11 10° N
Cosmos 1626 Rocket 3.9 23:42:03 31° SW 23:43:53 55° WNW 23:48:09 10° N
Cosmos 2082 Rocket 2.3 23:41:31 24° SW 23:45:03 77° WNW 23:50:48 10° NNE
Cosmos 1821 Rocket 4.0 23:41:04 10° NNW 23:47:23 78° W 23:50:56 27° S
Cosmos 1869 4.3 23:46:24 10° NNW 23:49:53 33° W 23:50:55 28° WSW
ATLAS 5 CENTAUR R/B 2.2 23:51:03 29° SE 23:51:40 31° ESE 23:55:18 10° ENE
Cosmos 1238 4.1 23:52:31 57° SSE 23:53:01 75° E 23:56:03 10° NNE
Cosmos 1825 Rocket 3.8 23:53:55 32° SSE 23:55:42 59° E 23:59:58 10° NNE
